[[{"header":{"parameterUnit":"m.s-1","parameterCategory":1,"la1":30.2991,"la2":30.254,"lo1":-89.0895,"lo2":-89.0444,"dy":0.0017,"dx":0.0017,"nx":28,"ny":28,"refTime":"2025-09-01T21:00:00:Z","depth":0,"parameterNumber":2,"parameterNumberName":"U-component_of_WINDS"},"data":[0,0,0,0,0,0,0,0,0,0,0,0,0,0,0,0,0,0,0,0,0,0,0,0,0,0,0,0,0,0,0,0,0,0,0,0,0,0,0,0,0,0,0,0,0,0,0,0,0,0,0,0,0,0,0,0,0,0,-2.6047,-2.6047,0,-2.6047,-2.6047,-2.6047,-2.5953,-2.5951,-2.5948,-2.5946,-2.5945,-2.5948,-2.595,0,0,0,0,0,0,0,0,0,0,0,0,0,-2.5965,-2.5967,-2.6047,-2.6047,-2.6047,-2.6047,-2.6047,-2.6047,-2.5954,-2.5951,-2.5948,-2.5945,-2.5945,-2.5947,-2.595,0,0,0,0,0,0,0,0,0,0,0,0,0,-2.5986,-2.5967,-2.6047,-2.6,-2.5996,-2.6047,-2.6047,-2.6047,-2.5954,-2.5951,-2.5947,-2.5943,-2.5944,-2.5947,-2.595,-2.6046,0,0,-2.5961,-2.5963,0,0,0,0,0,0,0,0,-2.5985,-2.5989,-2.6007,-2.6004,-2.5999,-2.5996,-2.6018,-2.6047,-2.5955,-2.597,-2.5946,-2.5942,-2.5965,-2.5967,-2.5975,-2.6046,-2.6046,-2.5961,-2.5963,-2.5965,-2.5966,0,0,0,0,0,0,0,-2.5984,-2.5989,-2.6047,-2.6008,-2.6003,-2.5979,-2.5978,-2.6023,-2.5989,-2.5969,-2.5962,-2.5963,-2.5962,-2.5972,-2.5974,-2.6046,-2.5961,-2.5964,-2.5966,-2.5968,-2.6196,-2.62,0,0,0,0,0,0,-2.5989,-2.5988,-2.6047,-2.6047,-2.5983,-2.5984,-2.5983,-2.6001,-2.5988,-2.5982,-2.5966,-2.5959,-2.5968,-2.597,-2.5974,-2.6084,-2.5965,-2.5968,-2.597,-2.6192,-2.6197,-2.6201,0,0,0,0,0,0,-2.5987,-2.5995,-2.6047,-2.6016,-2.6021,-2.5989,-2.6011,-2.6003,-2.6012,-2.5986,-2.5979,-2.5982,-2.5965,-2.5969,-2.6029,-2.6083,-2.597,-2.5973,-2.6187,-2.6193,-2.6199,-2.6307,0,0,0,0,0,0,-2.5986,-2.5995,-2.6031,-2.6017,-2.6023,-2.6103,-2.6014,-2.6006,-2.6019,-2.6009,-2.5999,-2.5994,-2.5962,-2.6024,-2.6032,-2.6086,-2.5975,-2.6182,-2.619,-2.6197,-2.6299,-2.6316,-2.6331,0,0,0,0,0,-2.5983,-2.6061,-2.6033,-2.6041,-2.6067,-2.6106,-2.6109,-2.6071,-2.6023,-2.6059,-2.6043,-2.5995,-2.6077,-2.6031,-2.604,-2.6095,-2.6179,-2.6188,-2.6196,-2.6291,-2.6313,-2.6331,0,0,0,0,0,0,-2.6081,-2.6059,-2.6027,-2.6104,-2.6108,-2.609,-2.6134,-2.6095,-2.6112,-2.6102,-2.6054,-2.6052,-2.612,-2.6113,-2.6064,-2.6187,-2.6119,-2.613,-2.6188,-2.6208,-2.6224,-2.6224,-2.5978,0,0,0,0,0,-2.6112,-2.6146,-2.6124,-2.6194,-2.6197,-2.6166,-2.6181,-2.6152,-2.6153,-2.6154,-2.6142,-2.6145,-2.6172,-2.619,-2.6213,-2.6298,-2.6294,-2.634,-2.6357,-2.637,-2.638,-2.6424,-2.6444,-2.6231,-2.6231,-2.623,0,0,-2.6176,-2.6168,-2.6191,-2.6213,-2.6213,-2.6248,-2.6167,-2.6208,-2.6234,-2.616,-2.6216,-2.6208,-2.6208,-2.6281,-2.6313,-2.6278,-2.6438,-2.6381,-2.6392,-2.6395,-2.6435,-2.6456,-2.6474,-2.6237,-2.6236,-2.6235,0,0,-2.6309,-2.6307,-2.6365,-2.6366,-2.6367,-2.6345,-2.6359,-2.6348,-2.6339,-2.6395,-2.634,-2.6371,-2.6417,-2.642,-2.6427,-2.6564,-2.652,-2.6573,-2.6657,-2.6701,-2.6718,-2.6733,-2.6781,-2.6799,-2.6583,-2.6583,-2.6583,0,-2.6388,-2.644,-2.6399,-2.6444,-2.6455,-2.6391,-2.6449,-2.6452,-2.646,-2.6469,-2.643,-2.6488,-2.6484,-2.6556,-2.659,-2.6598,-2.6613,-2.6573,-2.6719,-2.6733,-2.6746,-2.6791,-2.681,-2.659,-2.6589,-2.6588,-2.6588,0,-2.6536,-2.6573,-2.6619,-2.6629,-2.6646,-2.6697,-2.6664,-2.6686,-2.6656,-2.6638,-2.6696,-2.6689,-2.6709,-2.6725,-2.6696,-2.6794,-2.6772,-2.6727,-2.6658,-2.6774,-2.6815,-2.6832,-2.6599,-2.6596,-2.6594,-2.6593,0,0,-2.673,-2.6718,-2.6735,-2.6739,-2.6736,-2.6763,-2.6812,-2.6832,-2.6852,-2.686,-2.6899,-2.6941,-2.6899,-2.6908,-2.6879,-2.6918,-2.7026,-2.6868,-2.6867,-2.6896,-2.7133,-2.7166,-2.7187,-2.6998,-2.7001,-2.7003,-2.7133,0,-2.6859,-2.6941,-2.6906,-2.6992,-2.7025,-2.6965,-2.7008,-2.701,-2.6996,-2.7022,-2.7006,-2.7037,-2.698,-2.6985,-2.7021,-2.7005,-2.7072,-2.6995,-2.7033,-2.7035,-2.7033,-2.7209,-2.7243,-2.7366,-2.7149,-2.7152,-2.7154,0,-2.7019,-2.7035,-2.7124,-2.7115,-2.7128,-2.7166,-2.7182,-2.7209,-2.721,-2.7197,-2.7208,-2.717,-2.7217,-2.715,-2.7214,-2.7162,-2.7176,-2.7171,-2.7175,-2.7175,-2.71,-2.7213,-2.7404,-2.7422,-2.7179,-2.7177,-2.7175,0,-2.7151,-2.7194,-2.7253,-2.7258,-2.7249,-2.7278,-2.7276,-2.7274,-2.7289,-2.7303,-2.7312,-2.7332,-2.7343,-2.7359,-2.7328,-2.7282,-2.7396,-2.7326,-2.7386,-2.7387,-2.7411,-2.741,-2.7606,-2.7423,-2.7423,-2.7422,-2.7422,0,-2.7297,-2.7354,-2.7312,-2.7348,-2.7409,-2.737,-2.7432,-2.7423,-2.7422,-2.7455,-2.7405,-2.7438,-2.7395,-2.7423,-2.7399,-2.7456,-2.7461,-2.7452,-2.7444,-2.7455,-2.7457,-2.7462,-2.7453,-2.7427,-2.7426,-2.7425,-2.7424,0,-2.7454,-2.7428,-2.7488,-2.7475,-2.7474,-2.752,-2.7509,-2.7541,-2.7524,-2.7567,-2.7575,-2.7548,-2.7579,-2.755,-2.7579,-2.7563,-2.7638,-2.7619,-2.7637,-2.7632,-2.7693,-2.7688,-2.7899,-2.7924,-2.7726,-2.7728,-2.773,0,-2.7548,-2.7591,-2.7583,-2.7602,-2.7603,-2.7634,-2.7649,-2.7612,-2.763,-2.7636,-2.7668,-2.7694,-2.7713,-2.7765,-2.7748,-2.7771,-2.7751,-2.7824,-2.7754,-2.7764,-2.7751,-2.7748,-2.7752,-2.7837,-2.784,-2.7842,-2.7843,0,-2.7719,-2.7704,-2.7728,-2.7748,-2.7767,-2.7781,-2.7791,-2.7809,-2.7771,-2.7793,-2.7824,-2.784,-2.787,-2.7896,-2.7914,-2.7911,-2.7871,-2.7866,-2.788,-2.7892,-2.79,-2.7896,-2.7675,-2.786,-2.7859,-2.7857,-2.7856,-2.7856,-2.7846,-2.7881,-2.7882,-2.791,-2.7914,-2.7924,-2.7954,-2.7942,-2.7967,-2.7989,-2.7965,-2.8003,-2.8005,-2.8024,-2.8026,-2.8055,-2.8024,-2.8046,-2.8052,-2.8057,-2.8066,-2.7897,-2.8058,-2.8058,-2.8057,-2.8057,-2.8056,0,-2.8014,-2.8011,-2.8038,-2.8053,-2.8076,-2.8037,-2.8046,-2.8067,-2.8102,-2.8106,-2.8127,-2.8163,-2.8189,-2.8175,-2.8198,-2.8224,-2.8206,-2.8231,-2.8228,-2.8228,-2.8092,-2.8077,-2.8245,-2.8245,-2.8245,-2.8245,-2.8244,-2.8244,-2.8103,-2.816,-2.8146,-2.8204,-2.8201,-2.8238,-2.8246,-2.8256,-2.8259,-2.8302,-2.8324,-2.8315,-2.8312,-2.8334,-2.8357,-2.8352,-2.8362,-2.8394,-2.8382,-2.8256,-2.8237,-2.822,-2.8205,-2.8396,-2.8397,-2.8515,-2.8516,-2.8517]},{"header":{"parameterUnit":"m.s-1","parameterCategory":1,"la1":30.2991,"la2":30.254,"lo1":-89.0895,"lo2":-89.0444,"dy":0.0017,"dx":0.0017,"nx":28,"ny":28,"refTime":"2025-09-01T21:00:00:Z","depth":0,"parameterNumber":3,"parameterNumberName":"V-component_of_WINDS"},"data":[0,0,0,0,0,0,0,0,0,0,0,0,0,0,0,0,0,0,0,0,0,0,0,0,0,0,0,0,0,0,0,0,0,0,0,0,0,0,0,0,0,0,0,0,0,0,0,0,0,0,0,0,0,0,0,0,0,0,1.3799,1.3799,0,1.3773,1.3773,1.3773,1.3745,1.3745,1.3745,1.3744,1.3716,1.3716,1.3715,0,0,0,0,0,0,0,0,0,0,0,0,0,1.3825,1.3824,1.3799,1.3799,1.3799,1.3773,1.3773,1.3772,1.3746,1.3745,1.3745,1.3744,1.3716,1.3716,1.3715,0,0,0,0,0,0,0,0,0,0,0,0,0,1.3808,1.3824,1.3799,1.3782,1.378,1.3773,1.3773,1.3772,1.3746,1.3745,1.3745,1.3744,1.3716,1.3716,1.3715,1.3722,0,0,1.3713,1.3713,0,0,0,0,0,0,0,0,1.3809,1.3807,1.3785,1.3783,1.3781,1.3762,1.3771,1.3755,1.3746,1.3759,1.3744,1.3744,1.3732,1.373,1.3726,1.3721,1.372,1.3713,1.3713,1.3712,1.3712,0,0,0,0,0,0,0,1.381,1.3808,1.3789,1.3785,1.3783,1.3775,1.3772,1.3768,1.3749,1.3758,1.3756,1.3753,1.373,1.3727,1.3725,1.3719,1.3713,1.3712,1.3712,1.3712,1.3718,1.3719,0,0,0,0,0,0,1.3814,1.3809,1.379,1.3788,1.3794,1.3775,1.3772,1.3769,1.3749,1.3745,1.3753,1.3752,1.3728,1.3726,1.3724,1.3731,1.3712,1.3712,1.3711,1.3718,1.3718,1.3719,0,0,0,0,0,0,1.3815,1.3812,1.3791,1.3798,1.3795,1.3776,1.3772,1.3769,1.3765,1.3745,1.3742,1.3753,1.3727,1.3725,1.3723,1.3729,1.3712,1.3711,1.3717,1.3718,1.3718,1.3744,0,0,0,0,0,0,1.3815,1.3813,1.3816,1.3798,1.3794,1.3791,1.3773,1.3768,1.3764,1.3761,1.3744,1.3741,1.3727,1.3724,1.3722,1.3728,1.371,1.3716,1.3717,1.3718,1.3743,1.3746,1.3749,0,0,0,0,0,1.3816,1.3824,1.3816,1.3814,1.3798,1.3791,1.3789,1.3773,1.3765,1.3767,1.3755,1.3741,1.3729,1.3724,1.3722,1.3728,1.3716,1.3717,1.3718,1.3742,1.3745,1.3749,0,0,0,0,0,0,1.3842,1.3821,1.3812,1.3814,1.3805,1.3787,1.3789,1.3778,1.377,1.3768,1.3748,1.3745,1.3745,1.3736,1.3731,1.3733,1.372,1.3721,1.3739,1.3742,1.3745,1.3747,1.371,0,0,0,0,0,1.3848,1.3845,1.3827,1.383,1.3826,1.3809,1.3805,1.3794,1.3783,1.3779,1.3766,1.3755,1.3749,1.3745,1.3738,1.3742,1.3737,1.3744,1.3747,1.375,1.3751,1.3751,1.3754,1.3723,1.3723,1.3723,0,0,1.386,1.3848,1.3847,1.3835,1.3826,1.3823,1.3805,1.3803,1.38,1.3778,1.3775,1.3766,1.3753,1.3753,1.3753,1.3746,1.3758,1.3751,1.3754,1.3753,1.3753,1.3756,1.3759,1.3724,1.3723,1.3723,0,0,1.388,1.3871,1.3873,1.3865,1.3852,1.3841,1.3841,1.3825,1.3818,1.3815,1.3798,1.3794,1.3784,1.3775,1.377,1.3787,1.3774,1.3785,1.38,1.3801,1.3803,1.3806,1.3811,1.3814,1.3786,1.3786,1.3786,0,1.3897,1.3892,1.3876,1.3874,1.3869,1.385,1.3851,1.3844,1.3829,1.3826,1.3818,1.3805,1.3795,1.3793,1.3797,1.3793,1.3792,1.3787,1.3805,1.3806,1.3808,1.3813,1.3816,1.3788,1.3787,1.3787,1.3787,0,1.3913,1.3909,1.3912,1.3899,1.3895,1.3895,1.3878,1.3875,1.3864,1.3853,1.385,1.3837,1.3827,1.3826,1.3815,1.3823,1.3819,1.3808,1.3795,1.3813,1.3817,1.3819,1.379,1.3789,1.3789,1.3788,0,0,1.3948,1.3926,1.3928,1.3921,1.3906,1.3903,1.3902,1.3893,1.389,1.3881,1.3879,1.3871,1.3861,1.3854,1.3842,1.3843,1.3857,1.3833,1.3832,1.3837,1.3864,1.3872,1.3875,1.3849,1.3849,1.385,1.3865,0,1.3966,1.3963,1.3948,1.395,1.3946,1.3928,1.3927,1.3917,1.3907,1.3902,1.389,1.3885,1.3872,1.3868,1.3868,1.3856,1.3862,1.3854,1.3847,1.3847,1.385,1.3877,1.3885,1.3901,1.3867,1.3867,1.3867,0,1.3986,1.3978,1.3979,1.3964,1.3962,1.3961,1.3952,1.3947,1.3935,1.3928,1.3921,1.3908,1.3905,1.3893,1.3888,1.3883,1.3879,1.3872,1.3873,1.3871,1.3858,1.3876,1.3905,1.3907,1.387,1.387,1.387,0,1.4011,1.4001,1.4001,1.3996,1.3978,1.3978,1.397,1.3958,1.3953,1.3945,1.3941,1.3932,1.3927,1.392,1.3905,1.3898,1.3902,1.3889,1.3895,1.3896,1.3897,1.3897,1.3925,1.3895,1.3895,1.3895,1.3895,0,1.4032,1.4034,1.4012,1.4012,1.4012,1.3995,1.3996,1.3987,1.3976,1.3973,1.3957,1.3954,1.3934,1.3929,1.3917,1.3915,1.3912,1.3906,1.3902,1.3907,1.3908,1.3904,1.3902,1.3895,1.3895,1.3895,1.3895,0,1.4061,1.4046,1.4044,1.4028,1.4023,1.4025,1.401,1.4008,1.3997,1.3994,1.3992,1.3974,1.3967,1.3951,1.394,1.3932,1.3933,1.3927,1.3937,1.3935,1.3942,1.3942,1.3969,1.3971,1.394,1.394,1.394,0,1.4075,1.4076,1.4059,1.4056,1.4049,1.4045,1.404,1.4023,1.4019,1.4005,1.4006,1.3998,1.399,1.398,1.3966,1.3957,1.3951,1.3961,1.3949,1.3954,1.395,1.3951,1.395,1.3963,1.3964,1.3964,1.3964,0,1.4102,1.4094,1.4089,1.408,1.4075,1.4068,1.4059,1.4058,1.4039,1.4035,1.4028,1.4022,1.4011,1.4003,1.3992,1.3983,1.3971,1.3968,1.3969,1.3974,1.398,1.3976,1.3944,1.3968,1.3967,1.3967,1.3967,1.3967,1.4123,1.4123,1.4111,1.4105,1.4097,1.4089,1.4087,1.4076,1.407,1.406,1.405,1.4044,1.4032,1.4016,1.4009,1.4003,1.3997,1.3998,1.3999,1.3999,1.4001,1.3981,1.4001,1.4001,1.4001,1.4001,1.4001,0,1.4149,1.414,1.4135,1.4124,1.4119,1.4108,1.4098,1.4094,1.409,1.408,1.4073,1.4065,1.4057,1.4042,1.4033,1.4032,1.4026,1.403,1.403,1.4028,1.4008,1.4008,1.4035,1.4035,1.4035,1.4035,1.4035,1.4035,1.4161,1.416,1.4152,1.4146,1.4138,1.4132,1.4127,1.412,1.4112,1.4104,1.4098,1.4088,1.4076,1.4066,1.4058,1.4054,1.4051,1.4057,1.4051,1.4032,1.4029,1.4026,1.4026,1.4057,1.4057,1.4071,1.4072,1.4072]}]]